| time (UTC) | temp C | wind direction | speed KPH | gust KPH | rain 1hr cm | rain 24hr cm | rain mn cm | humidity % | barometer mb |
| 20260507084326 | 10 | 11 | 0.0 | 0.0 | 0.00 | 0.00 | 0.00 | 30 | 1021.9 |
| 20260507083338 | 10 | 37 | 0.0 | 0.0 | 0.00 | 0.00 | 0.00 | 31 | 1021.9 |
| 20260507082340 | 10 | 47 | 0.0 | 0.0 | 0.00 | 0.00 | 0.00 | 31 | 1022.0 |
| 20260507081332 | 10 | 128 | 0.0 | 0.0 | 0.00 | 0.00 | 0.00 | 31 | 1022.0 |
| 20260507080332 | 10 | 72 | 0.0 | 0.0 | 0.00 | 0.00 | 0.00 | 32 | 1021.6 |
| 20260507075332 | 9 | 79 | 0.0 | 0.0 | 0.00 | 0.00 | 0.00 | 32 | 1022.2 |
| 20260507074322 | 8 | 40 | 0.0 | 0.0 | 0.00 | 0.00 | 0.00 | 34 | 1022.2 |
| 20260507073335 | 8 | 40 | 0.0 | 0.0 | 0.00 | 0.00 | 0.00 | 34 | 1022.1 |
| 20260507072336 | 8 | 350 | 0.0 | 0.0 | 0.00 | 0.00 | 0.00 | 33 | 1021.9 |
| 20260507071324 | 8 | 350 | 0.0 | 0.0 | 0.00 | 0.00 | 0.00 | 30 | 1021.9 |
| 20260507070341 | 8 | 350 | 0.0 | 0.0 | 0.00 | 0.00 | 0.00 | 29 | 1021.9 |
| 20260507065323 | 9 | 350 | 0.0 | 0.0 | 0.00 | 0.00 | 0.00 | 28 | 1021.4 |
| 20260507064332 | 9 | 350 | 0.0 | 0.0 | 0.00 | 0.00 | 0.00 | 27 | 1021.4 |
| 20260507063346 | 9 | 65 | 0.0 | 0.0 | 0.00 | 0.00 | 0.00 | 27 | 1021.3 |
| 20260507062326 | 10 | 65 | 0.0 | 0.0 | 0.00 | 0.00 | 0.00 | 26 | 1021.2 |
| 20260507061335 | 10 | 65 | 0.0 | 0.0 | 0.00 | 0.00 | 0.00 | 25 | 1021.2 |
| 20260507060331 | 9 | 346 | 0.0 | 0.0 | 0.00 | 0.00 | 0.00 | 25 | 1021.3 |
| 20260507055332 | 9 | 73 | 0.0 | 0.0 | 0.00 | 0.00 | 0.00 | 25 | 1021.1 |
| 20260507054322 | 9 | 73 | 0.0 | 0.0 | 0.00 | 0.00 | 0.00 | 25 | 1021.1 |
| 20260507053335 | 9 | 73 | 0.0 | 0.0 | 0.00 | 0.00 | 0.00 | 25 | 1021.2 |
| 20260507052335 | 10 | 73 | 0.0 | 0.0 | 0.00 | 0.00 | 0.00 | 24 | 1020.4 |
| 20260507051324 | 10 | 73 | 0.0 | 0.0 | 0.00 | 0.00 | 0.00 | 23 | 1020.4 |
| 20260507050331 | 10 | 73 | 0.0 | 0.0 | 0.00 | 0.00 | 0.00 | 23 | 1021.0 |
| 20260507045333 | 10 | 73 | 0.0 | 0.0 | 0.00 | 0.00 | 0.00 | 23 | 1020.7 |
| 20260507044322 | 10 | 51 | 0.0 | 0.0 | 0.00 | 0.00 | 0.00 | 25 | 1020.7 |
| 20260507043338 | 10 | 335 | 0.0 | 0.0 | 0.00 | 0.00 | 0.00 | 25 | 1020.7 |
| 20260507042339 | 10 | 335 | 0.0 | 0.0 | 0.00 | 0.00 | 0.00 | 25 | 1020.4 |
| 20260507041328 | 11 | 335 | 0.0 | 0.0 | 0.00 | 0.00 | 0.00 | 26 | 1020.4 |
| 20260507040345 | 11 | 335 | 0.0 | 0.0 | 0.00 | 0.00 | 0.00 | 26 | 1020.0 |
| 20260507035326 | 11 | 335 | 0.0 | 0.0 | 0.00 | 0.00 | 0.00 | 25 | 1019.9 |
| 20260507034338 | 11 | 34 | 0.0 | 0.0 | 0.00 | 0.00 | 0.00 | 26 | 1019.9 |
| 20260507033331 | 11 | 34 | 0.0 | 0.0 | 0.00 | 0.00 | 0.00 | 27 | 1019.6 |
| 20260507032332 | 11 | 326 | 0.0 | 0.0 | 0.00 | 0.00 | 0.00 | 28 | 1019.8 |
| 20260507031321 | 11 | 326 | 0.0 | 0.0 | 0.00 | 0.00 | 0.00 | 27 | 1019.8 |
| 20260507030338 | 12 | 326 | 0.0 | 0.0 | 0.00 | 0.00 | 0.00 | 26 | 1019.3 |
| 20260507025339 | 13 | 326 | 0.0 | 0.0 | 0.00 | 0.00 | 0.00 | 25 | 1019.3 |
| 20260507024328 | 13 | 326 | 0.0 | 0.0 | 0.00 | 0.00 | 0.00 | 24 | 1019.3 |
| 20260507023340 | 15 | 326 | 0.0 | 0.0 | 0.00 | 0.00 | 0.00 | 23 | 1018.7 |
| 20260507022321 | 15 | 326 | 0.0 | 0.0 | 0.00 | 0.00 | 0.00 | 23 | 1018.8 |
| 20260507021331 | 15 | 326 | 0.0 | 0.0 | 0.00 | 0.00 | 0.00 | 22 | 1018.8 |
| 20260507020343 | 15 | 328 | 0.0 | 0.0 | 0.00 | 0.00 | 0.00 | 22 | 1018.2 |
| 20260507015328 | 16 | 326 | 0.0 | 0.0 | 0.00 | 0.00 | 0.00 | 22 | 1018.1 |
| 20260507014338 | 16 | 328 | 0.0 | 0.0 | 0.00 | 0.00 | 0.00 | 21 | 1018.1 |
| 20260507013331 | 16 | 322 | 0.0 | 0.0 | 0.00 | 0.00 | 0.00 | 21 | 1018.0 |
| 20260507012331 | 16 | 337 | 0.0 | 0.0 | 0.00 | 0.00 | 0.00 | 21 | 1017.9 |
| 20260507011321 | 16 | 275 | 0.0 | 0.0 | 0.00 | 0.00 | 0.00 | 21 | 1017.9 |
| 20260507010333 | 16 | 247 | 0.0 | 0.0 | 0.00 | 0.00 | 0.00 | 21 | 1018.0 |
| 20260507005338 | 17 | 247 | 0.0 | 0.0 | 0.00 | 0.00 | 0.00 | 21 | 1018.1 |
| 20260507004330 | 17 | 258 | 0.0 | 0.0 | 0.00 | 0.00 | 0.00 | 22 | 1018.1 |
| 20260507003343 | 17 | 258 | 0.0 | 0.0 | 0.00 | 0.00 | 0.00 | 21 | 1017.9 |
| 20260507002323 | 17 | 258 | 0.0 | 0.0 | 0.00 | 0.00 | 0.00 | 22 | 1017.9 |
| 20260507001333 | 17 | 299 | 0.0 | 0.0 | 0.00 | 0.00 | 0.00 | 21 | 1017.9 |
| 20260507000345 | 17 | 253 | 0.0 | 0.0 | 0.00 | 0.00 | 0.00 | 21 | 1017.7 |
| 20260506235330 | 17 | 339 | 0.0 | 0.0 | 0.00 | 0.00 | 0.00 | 21 | 1017.8 |
| 20260506234323 | 17 | 344 | 1.6 | 0.0 | 0.00 | 0.00 | 0.00 | 21 | 1017.8 |
| 20260506233335 | 18 | 248 | 1.6 | 0.0 | 0.00 | 0.00 | 0.00 | 21 | 1017.7 |
| 20260506232337 | 17 | 320 | 1.6 | 0.0 | 0.00 | 0.00 | 0.00 | 22 | 1017.3 |
| 20260506231326 | 18 | 330 | 3.2 | 0.0 | 0.00 | 0.00 | 0.00 | 21 | 1017.3 |
| 20260506230339 | 18 | 328 | 4.8 | 0.0 | 0.00 | 0.00 | 0.00 | 22 | 1017.7 |
| 20260506225323 | 17 | 267 | 1.6 | 0.0 | 0.00 | 0.00 | 0.00 | 22 | 1017.9 |
| 20260506224333 | 18 | 344 | 1.6 | 0.0 | 0.00 | 0.00 | 0.00 | 22 | 1017.9 |
| 20260506223346 | 18 | 349 | 1.6 | 0.0 | 0.00 | 0.00 | 0.00 | 21 | 1017.3 |
| 20260506222326 | 18 | 277 | 0.0 | 0.0 | 0.00 | 0.00 | 0.00 | 22 | 1017.9 |
| 20260506221336 | 17 | 359 | 0.0 | 0.0 | 0.00 | 0.00 | 0.00 | 22 | 1017.9 |
| 20260506220349 | 17 | 347 | 1.6 | 0.0 | 0.00 | 0.00 | 0.00 | 23 | 1018.1 |
| 20260506215332 | 17 | 301 | 0.0 | 0.0 | 0.00 | 0.00 | 0.00 | 22 | 1018.1 |
| 20260506214322 | 17 | 217 | 1.6 | 0.0 | 0.00 | 0.00 | 0.00 | 22 | 1018.1 |
| 20260506213334 | 17 | 346 | 0.0 | 0.0 | 0.00 | 0.00 | 0.00 | 23 | 1017.9 |
| 20260506212335 | 16 | 215 | 1.6 | 0.0 | 0.00 | 0.00 | 0.00 | 24 | 1018.3 |
| 20260506211324 | 17 | 268 | 0.0 | 0.0 | 0.00 | 0.00 | 0.00 | 24 | 1018.3 |
| 20260506210337 | 16 | 248 | 1.6 | 0.0 | 0.00 | 0.00 | 0.00 | 24 | 1018.0 |
| 20260506205322 | 16 | 54 | 0.0 | 0.0 | 0.00 | 0.00 | 0.00 | 25 | 1017.9 |
| 20260506204331 | 16 | 11 | 1.6 | 0.0 | 0.00 | 0.00 | 0.00 | 24 | 1017.9 |
| 20260506203344 | 16 | 4 | 0.0 | 0.0 | 0.00 | 0.00 | 0.00 | 25 | 1018.0 |
| 20260506202325 | 15 | 292 | 0.0 | 0.0 | 0.00 | 0.00 | 0.00 | 26 | 1018.5 |
| 20260506201334 | 15 | 339 | 0.0 | 0.0 | 0.00 | 0.00 | 0.00 | 26 | 1018.5 |
| 20260506200331 | 16 | 344 | 1.6 | 0.0 | 0.00 | 0.00 | 0.00 | 25 | 1018.0 |
| 20260506195331 | 16 | 360 | 0.0 | 0.0 | 0.00 | 0.00 | 0.00 | 27 | 1018.0 |
| 20260506194325 | 15 | 71 | 0.0 | 0.0 | 0.00 | 0.00 | 0.00 | 27 | 1018.0 |
| 20260506193341 | 16 | 352 | 0.0 | 0.0 | 0.00 | 0.00 | 0.00 | 27 | 1018.1 |
| 20260506192322 | 15 | 263 | 0.0 | 0.0 | 0.00 | 0.00 | 0.00 | 28 | 1018.0 |
| 20260506191332 | 15 | 360 | 0.0 | 0.0 | 0.00 | 0.00 | 0.00 | 28 | 1018.0 |
| 20260506190345 | 15 | 330 | 0.0 | 0.0 | 0.00 | 0.00 | 0.00 | 28 | 1018.5 |
| 20260506185325 | 16 | 296 | 0.0 | 0.0 | 0.00 | 0.00 | 0.00 | 27 | 1018.6 |
| 20260506184338 | 16 | 13 | 0.0 | 0.0 | 0.00 | 0.00 | 0.00 | 27 | 1018.6 |
| 20260506183331 | 15 | 282 | 0.0 | 0.0 | 0.00 | 0.00 | 0.00 | 27 | 1018.3 |
| 20260506182331 | 15 | 258 | 0.0 | 0.0 | 0.00 | 0.00 | 0.00 | 29 | 1018.2 |
| 20260506181321 | 15 | 284 | 0.0 | 0.0 | 0.00 | 0.00 | 0.00 | 28 | 1018.2 |
| 20260506180334 | 14 | 248 | 0.0 | 0.0 | 0.00 | 0.00 | 0.00 | 28 | 1018.7 |
| 20260506175335 | 13 | 356 | 1.6 | 0.0 | 0.00 | 0.00 | 0.00 | 30 | 1018.7 |
| 20260506174329 | 13 | 319 | 1.6 | 0.0 | 0.00 | 0.00 | 0.00 | 31 | 1018.7 |
| 20260506173341 | 13 | 251 | 1.6 | 0.0 | 0.00 | 0.00 | 0.00 | 32 | 1018.6 |
| 20260506172322 | 13 | 260 | 0.0 | 0.0 | 0.00 | 0.00 | 0.00 | 31 | 1018.1 |
| 20260506171332 | 13 | 343 | 1.6 | 0.0 | 0.00 | 0.00 | 0.00 | 31 | 1018.1 |
| 20260506170344 | 13 | 268 | 0.0 | 0.0 | 0.00 | 0.00 | 0.00 | 29 | 1018.2 |
| 20260506165325 | 13 | 329 | 1.6 | 0.0 | 0.00 | 0.00 | 0.00 | 30 | 1018.1 |
| 20260506164335 | 12 | 113 | 0.0 | 0.0 | 0.00 | 0.00 | 0.00 | 31 | 1018.1 |
| 20260506163332 | 12 | 258 | 0.0 | 0.0 | 0.00 | 0.00 | 0.00 | 31 | 1018.0 |
| 20260506162332 | 12 | 312 | 1.6 | 0.0 | 0.00 | 0.00 | 0.00 | 31 | 1017.7 |
| 20260506161322 | 12 | 265 | 1.6 | 0.0 | 0.00 | 0.00 | 0.00 | 31 | 1017.7 |
| 20260506160334 | 12 | 337 | 0.0 | 0.0 | 0.00 | 0.00 | 0.00 | 33 | 1017.8 |
| 20260506155335 | 11 | 315 | 0.0 | 0.0 | 0.00 | 0.00 | 0.00 | 35 | 1017.4 |
| 20260506154325 | 11 | 260 | 0.0 | 0.0 | 0.00 | 0.00 | 0.00 | 35 | 1017.4 |
| 20260506153342 | 11 | 268 | 0.0 | 0.0 | 0.00 | 0.00 | 0.00 | 34 | 1017.4 |
| 20260506152323 | 10 | 340 | 0.0 | 0.0 | 0.00 | 0.00 | 0.00 | 37 | 1017.9 |
| 20260506151332 | 9 | 217 | 0.0 | 0.0 | 0.00 | 0.00 | 0.00 | 39 | 1017.9 |
| 20260506150345 | 8 | 243 | 0.0 | 0.0 | 0.00 | 0.00 | 0.00 | 43 | 1017.9 |
| 20260506145327 | 8 | 278 | 0.0 | 0.0 | 0.00 | 0.00 | 0.00 | 46 | 1017.5 |
| 20260506144339 | 7 | 258 | 0.0 | 0.0 | 0.00 | 0.00 | 0.00 | 50 | 1017.5 |
| 20260506143336 | 6 | 189 | 0.0 | 0.0 | 0.00 | 0.00 | 0.00 | 52 | 1017.6 |
| 20260506142337 | 5 | 185 | 0.0 | 0.0 | 0.00 | 0.00 | 0.00 | 55 | 1017.4 |
| 20260506141326 | 4 | 185 | 0.0 | 0.0 | 0.00 | 0.00 | 0.00 | 57 | 1017.4 |
| 20260506140339 | 3 | 178 | 0.0 | 0.0 | 0.00 | 0.00 | 0.00 | 58 | 1017.6 |
| 20260506135340 | 3 | 172 | 0.0 | 0.0 | 0.00 | 0.00 | 0.00 | 61 | 1017.0 |
| 20260506134329 | 2 | 220 | 0.0 | 0.0 | 0.00 | 0.00 | 0.00 | 65 | 1017.0 |
| 20260506133346 | 2 | 222 | 0.0 | 0.0 | 0.00 | 0.00 | 0.00 | 67 | 1017.2 |
| 20260506132327 | 1 | 220 | 0.0 | 0.0 | 0.00 | 0.00 | 0.00 | 67 | 1016.9 |
| 20260506131337 | 1 | 220 | 0.0 | 0.0 | 0.00 | 0.00 | 0.00 | 69 | 1016.9 |
| 20260506130329 | 1 | 220 | 0.0 | 0.0 | 0.00 | 0.00 | 0.00 | 70 | 1016.8 |
| 20260506125330 | 0 | 222 | 0.0 | 0.0 | 0.00 | 0.00 | 0.00 | 70 | 1016.6 |
| 20260506124340 | 0 | 222 | 0.0 | 0.0 | 0.00 | 0.00 | 0.00 | 69 | 1016.6 |
| 20260506123337 | 1 | 222 | 0.0 | 0.0 | 0.00 | 0.00 | 0.00 | 68 | 1016.5 |
| 20260506122337 | 1 | 222 | 0.0 | 0.0 | 0.00 | 0.00 | 0.00 | 68 | 1016.4 |
| 20260506121327 | 1 | 222 | 0.0 | 0.0 | 0.00 | 0.00 | 0.00 | 67 | 1016.4 |
| 20260506120340 | 1 | 222 | 0.0 | 0.0 | 0.00 | 0.00 | 0.00 | 67 | 1016.0 |
| 20260506115320 | 1 | 222 | 0.0 | 0.0 | 0.00 | 0.00 | 0.00 | 67 | 1015.8 |
| 20260506114330 | 1 | 222 | 0.0 | 0.0 | 0.00 | 0.00 | 0.00 | 67 | 1015.8 |
| 20260506113343 | 1 | 220 | 0.0 | 0.0 | 0.00 | 0.00 | 0.00 | 67 | 1015.8 |
| 20260506112327 | 1 | 222 | 0.0 | 0.0 | 0.00 | 0.00 | 0.00 | 67 | 1015.7 |
| 20260506111338 | 1 | 222 | 0.0 | 0.0 | 0.00 | 0.00 | 0.00 | 68 | 1015.7 |
| 20260506110330 | 1 | 222 | 0.0 | 0.0 | 0.00 | 0.00 | 0.00 | 68 | 1015.8 |
| 20260506105331 | 1 | 222 | 0.0 | 0.0 | 0.00 | 0.00 | 0.00 | 68 | 1015.6 |
| 20260506104320 | 1 | 222 | 0.0 | 0.0 | 0.00 | 0.00 | 0.00 | 67 | 1015.6 |
| 20260506103333 | 1 | 222 | 0.0 | 0.0 | 0.00 | 0.00 | 0.00 | 67 | 1015.0 |
| 20260506102321 | 2 | 222 | 0.0 | 0.0 | 0.00 | 0.00 | 0.00 | 67 | 1015.4 |
| 20260506101330 | 1 | 222 | 0.0 | 0.0 | 0.00 | 0.00 | 0.00 | 68 | 1015.4 |
| 20260506100342 | 1 | 222 | 0.0 | 0.0 | 0.00 | 0.00 | 0.00 | 69 | 1015.0 |
| 20260506095327 | 1 | 222 | 0.0 | 0.0 | 0.00 | 0.00 | 0.00 | 70 | 1014.9 |
| 20260506094337 | 1 | 222 | 0.0 | 0.0 | 0.00 | 0.00 | 0.00 | 70 | 1014.9 |
| 20260506093348 | 1 | 222 | 0.0 | 0.0 | 0.00 | 0.00 | 0.00 | 71 | 1015.2 |
| 20260506092333 | 1 | 222 | 0.0 | 0.0 | 0.00 | 0.00 | 0.00 | 71 | 1014.7 |
| 20260506091323 | 1 | 222 | 0.0 | 0.0 | 0.00 | 0.00 | 0.00 | 71 | 1014.7 |
| 20260506090336 | 1 | 222 | 0.0 | 0.0 | 0.00 | 0.00 | 0.00 | 71 | 1014.9 |
| 20260506085340 | 1 | 222 | 0.0 | 0.0 | 0.00 | 0.00 | 0.00 | 71 | 1014.8 |